Simultaneous Nadir Overpasses (SNOs) Predictions

Prediction of SNOs over PacNW region [( 10.00, 139.50) to ( 22.70, 165.60)] between NOAA-19 and NPP Satellites:

Table of predicted SNOs over PacNW region for the next 30.0 days since TLE Epoch: 8/22/2014
Index Date (NOAA-19) Time (NOAA-19) NOAA-19 Lat,Lon Date (NPP) Time (NPP) NPP Lat,Lon Distance(km) Time Diff (sec)
1 09/01/2014 16:40:50 12.89, 140.60 09/01/2014 16:38:02 13.91, 135.95 515.59 168
2 09/14/2014 03:21:10 19.74, 155.38 09/14/2014 03:22:00 18.42, 149.91 593.82 50
3 09/14/2014 15:57:45 11.23, 151.25 09/14/2014 15:54:29 12.24, 146.63 515.23 196




NCC Satellite Simultaneous Nadir Overpasses (SNOs) Prediction Service
